Simultaneous Nadir Overpasses (SNOs) Predictions

Prediction of SNOs between GOES-14 and AQUA Satellite Orbit:

Table of predicted SNOs for the next 14.0 days since TLE Epoch: 11/9/2019
Index Date Time (GOES-14) GOES-14 Lat,Lon AQUA Lat,Lon Distance(km) Time Diff (sec)
1 11/10/2019 08:14:35 0.12,-104.23 -0.71,-100.24 453.30 80
2 11/10/2019 20:35:59 -0.10,-104.09 -0.38,-105.43 152.54 80
3 11/12/2019 20:26:28 -0.10,-104.09 0.26,-102.48 183.61 80
4 11/13/2019 08:47:45 0.08,-104.25 0.78,-107.65 385.89 80
5 11/15/2019 08:35:33 0.09,-104.24 0.20,-104.68 50.59 80
6 11/17/2019 08:20:42 0.09,-104.23 -0.45,-101.73 284.29 80
7 11/17/2019 20:42:04 -0.07,-104.05 -0.68,-106.91 325.61 80
8 11/19/2019 20:32:34 -0.07,-104.04 -0.03,-103.96 9.97 80
9 11/21/2019 20:20:22 -0.07,-104.04 0.57,-101.00 345.17 80
10 11/22/2019 08:41:38 0.05,-104.23 0.48,-106.17 221.23 80




NCC Satellite Simultaneous Nadir Overpasses (SNOs) Prediction Service
